Location: Gudiv?da
(16.4355°N, 80.9956°E)
Time: 12:41:47
(UTC+00:00)

Daily predictions for brighter satellites

Satellite Brightness Start Highest point End
(mag) Time Altitude Azimuth Time Altitude Azimuth Time Altitude Azimuth
SL-8 R/B 4.2 13:17:45 10° NNW 13:22:15 45° NE 13:26:45 10° ESE
COBE Rocket 4.0 13:17:19 10° N 13:22:21 89° WNW 13:27:15 10° SSW
SWIFT 2.0 13:20:35 10° W 13:23:39 58° N 13:26:44 10° ENE
CZ-2D R/B 4.5 13:25:10 10° SSW 13:27:49 32° W 13:30:29 10° NW
Cosmos 405 Rocket 4.2 13:25:36 10° NNW 13:28:14 30° W 13:30:55 10° SSW
Cosmos 1110 Rocket 4.0 13:24:14 10° S 13:29:26 69° ESE 13:34:41 10° NNE
ARIANE 6 FM1 Upper Stage 3.4 13:27:49 10° N 13:31:25 33° ENE 13:34:54 11° SE
Cosmos 1607 3.9 13:25:59 10° SSW 13:31:59 67° ESE 13:38:04 10° NNE
SAR-Lupe-4 3.5 13:39:18 10° SSE 13:42:46 62° ENE 13:46:13 10° N
ATLAS 5 CENTAUR R/B 1.3 13:37:46 10° W 13:43:04 48° N 13:45:18 11° ENE
Cosmos 1818 3.7 13:38:34 10° NNW 13:43:59 76° WSW 13:49:22 10° SSE
Cosmos 2100 Rocket 4.3 13:45:14 10° SSE 13:51:03 45° E 13:56:55 10° NNE
Meteor 2-1 Rocket 4.3 13:45:57 10° S 13:51:35 57° E 13:57:06 10° NNE
GPS 2-15 Rocket1 4.3 13:47:49 10° SW 13:51:45 25° SSE 13:53:46 19° ESE
SL-24 R/B 4.2 13:48:01 10° NNE 13:52:12 54° ESE 13:56:33 10° S
SPOT 5 3.9 13:50:45 18° ESE 13:52:16 21° ENE 13:55:30 10° NNE
Resurs 01 Rocket 1.7 13:49:03 10° S 13:53:23 77° W 13:57:44 10° NNW
Cosmos 1656 3.6 13:48:59 10° N 13:54:33 72° ENE 14:00:02 11° SSE
TOS 3.2 13:54:53 10° W 13:57:23 74° S 14:01:03 18° E
PSLV R/B 3.3 13:53:37 10° SSE 13:57:44 81° ENE 14:01:52 10° N
Cosmos 2151 Rocket 3.6 13:57:04 10° S 14:01:24 78° W 14:05:45 10° N
Okean 2 Rocket 3.0 13:57:55 10° S 14:02:20 72° E 14:06:47 10° N
FALCON 9 R/B 3.9 13:56:57 10° WSW 14:04:24 82° SSE 14:37:46 10° ENE
NOAA 6 4.5 14:02:43 10° S 14:07:43 61° WSW 14:12:44 10° NNW
Helios 1A Rocket 3.5 14:06:17 10° NE 14:08:06 26° ENE 14:08:06 26° ENE
Cosmos 1536 Rocket 4.3 14:05:50 10° NNE 14:09:42 30° E 14:10:13 30° E
ASTEX 1 3.9 14:07:56 26° SE 14:10:07 39° E 14:14:42 10° NNE
SL-24 R/B 4.4 14:07:30 10° NNE 14:12:11 68° ESE 14:17:45 10° S
ATLAS 2A CENTAUR R/B 2.8 14:10:32 10° NW 14:12:58 19° N 14:13:36 17° NNE
NOSS 3-3 (A) 3.6 14:08:20 10° SSW 14:13:03 70° WNW 14:18:06 10° NNE
Meteor 2-3 Rocket 4.4 14:11:48 10° NNE 14:16:51 33° E 14:17:57 31° ESE
Cosmos 2082 Rocket 2.1 14:11:49 10° SSW 14:17:31 85° ESE 14:23:13 10° NNE
Cosmos 1992 Rocket 4.5 14:19:59 35° ESE 14:20:22 36° E 14:25:05 10° NE
Cosmos 1725 Rocket 4.2 14:16:15 17° SSE 14:20:56 48° E 14:26:55 10° NNE
Cosmos 1190 Rocket 4.1 14:16:30 10° NNW 14:21:41 73° WSW 14:25:27 19° S
Cosmos 1455 Rocket 3.3 14:21:34 43° ESE 14:22:09 46° E 14:26:21 10° NNE
GPS 2-12 Rocket1 3.2 14:18:38 10° W 14:22:51 54° SSW 14:23:48 44° SSE
Milstar 3 4.0 14:18:30 10° NW 14:24:32 35° N 14:30:39 14° ENE
Delta 168 3.5 14:23:39 10° W 14:26:36 38° NNW 14:27:51 27° NNE
SL-4 R/B 4.1 14:24:46 10° NNE 14:26:12 13° NE 14:26:12 13° NE
Cosmos 332 Rocket 3.6 14:25:35 10° N 14:30:18 71° ENE 14:31:24 50° SE
Okean 1 Rocket 4.0 14:29:01 10° SSW 14:33:11 46° W 14:37:23 10° N
Meteor 1-27 4.1 14:29:58 20° S 14:33:57 68° E 14:39:33 10° NNE
Cosmos 2016 Rocket 4.0 14:32:56 27° SSE 14:36:26 62° E 14:42:35 10° NNE
Cosmos 2173 Rocket 4.3 14:30:53 10° SSW 14:36:55 66° W 14:43:01 10° N
SJ 16-02 3.8 14:34:54 10° NW 14:37:53 19° W 14:40:52 10° SW
Cosmos 968 Rocket 3.8 14:33:58 10° N 14:38:56 46° ENE 14:38:56 46° ENE
SJ-6B 4.5 14:37:52 16° SSW 14:39:54 27° W 14:42:53 10° NW
SEDSat Delta rocket 4.0 14:34:27 10° SW 14:40:49 55° SSE 14:41:54 49° ESE
Cosmos 1697 Rocket 2.6 14:42:32 10° N 14:48:04 63° ENE 14:48:22 62° E
USA 215 3.2 14:49:08 51° ESE 14:50:51 74° NE 14:57:21 10° NNW
H-10 deb 4.1 14:48:46 10° WSW 14:50:45 15° SW 14:50:45 15° SW
COSMOS 2406 3.0 14:53:33 55° S 14:54:50 79° ESE 15:00:33 10° NNE
Delta 202 4.5 14:53:20 10° W 14:58:03 37° SSW 14:58:03 37° SSW
SWIFT 4.5 14:58:38 10° WNW 14:59:39 18° WNW 14:59:39 18° WNW
Cosmos 1816 Rocket 4.4 14:55:31 10° N 15:01:27 67° ENE 15:01:27 67° ENE
Cosmos 2061 Rocket 4.1 15:06:45 59° NE 15:06:45 59° NE 15:12:01 10° NNE
USA 229 DEB 4.0 14:59:22 10° NNW 15:07:35 80° ENE 15:09:22 60° SE
USA 229 4.0 14:59:26 10° NNW 15:07:39 79° ENE 15:09:22 61° SE
Terra 3.1 15:10:10 32° N 15:10:10 32° N 15:12:45 10° N
CSL-04 Rocket 4.4 15:07:39 39° SW 15:09:09 49° W 15:14:26 10° NNW
SL-08 R/B 4.1 15:10:51 10° N 15:15:12 48° WNW 15:15:12 48° WNW
Cosmos 1980 Rocket 3.4 15:13:05 10° N 15:16:19 31° NNE 15:16:19 31° NNE
CZ-4 R/B 3.9 15:24:30 17° NW 15:24:30 17° NW 15:25:37 10° NW
CZ-4B R/B 3.9 15:27:55 50° NNW 15:27:55 50° NNW 15:31:59 10° NNW
Aureole 3 Rocket 4.4 15:37:44 69° NW 15:37:44 69° NW 15:45:10 10° N
ATLAS 3B R/B 3.1 15:38:43 10° NNW 15:44:53 63° NW 15:44:53 63° NW
Resurs 1-4 Rocket 4.4 20:54:32 10° NNE 20:55:53 18° NNE 20:55:53 18° NNE
Atlas Centaur 2 4.2 21:01:04 29° NNW 21:01:37 29° N 21:08:23 10° NE
CZ-2D R/B 3.8 21:32:02 10° N 21:34:27 26° NNW 21:34:27 26° NNW
H-2A R/B 3.4 21:40:42 10° N 21:43:36 31° NNW 21:43:36 31° NNW
Ariane H10+ 4.4 21:42:27 50° SW 21:46:00 57° S 22:00:48 10° ESE
USA 267 4.1 21:41:17 10° ENE 21:47:21 41° SE 21:48:52 36° SSE
CZ-3 R/B 3.8 21:08:51 10° WNW 21:53:18 82° NNE 22:03:25 10° ESE
Nadezhda 1 Rocket 3.9 21:55:46 69° NW 21:55:46 69° NW 22:01:17 10° N
ARGOS 3.1 21:51:51 10° NNE 21:57:11 75° ESE 21:57:14 75° ESE
Cosmos 1933 Rocket 4.4 21:55:25 10° N 21:58:53 47° NE 21:58:53 47° NE
USA 281 3.1 22:02:01 10° SSE 22:08:34 88° ENE 22:15:09 10° NNW
AQUA 3.7 22:07:26 10° N 22:11:49 78° NNW 22:11:49 78° NNW
Meteor 1-12 Rocket 4.0 22:06:58 10° NNW 22:12:33 70° W 22:12:48 69° WSW
GOES 2 Rocket 3.6 22:14:27 56° S 22:14:55 59° SSE 22:19:39 10° ENE
Cosmos 1680 Rocket 3.8 22:15:45 38° SSE 22:17:36 63° ESE 22:22:44 10° NNE
Cosmos 2344 4.4 22:16:59 33° W 22:18:27 35° WNW 22:25:17 10° N
GPS 2-17 Rocket1 3.3 22:18:12 55° NNW 22:18:44 60° N 22:23:15 10° E
SL-08 RB Rocket 3.8 22:14:18 10° NNE 22:18:49 71° E 22:19:51 52° SSE
Cosmos 1943 3.2 22:13:47 10° NNW 22:18:47 56° W 22:18:47 56° W
Centaur D AC-29 2.1 22:18:26 37° W 22:21:55 75° NNW 22:25:43 10° ENE
H-2A R/B 1.7 22:19:27 10° NNE 22:23:26 87° ESE 22:23:31 85° SSE
GPS 2-15 Rocket1 3.8 22:31:22 36° S 22:31:22 36° S 22:34:54 10° SE
Cosmos 1869 Rocket 3.3 22:26:24 10° N 22:30:42 82° W 22:31:55 46° S
NOSS 3-2 (C) 3.2 22:30:37 43° WNW 22:30:46 43° WNW 22:35:28 10° N
ADEOS II 3.8 22:27:16 10° NNW 22:29:18 17° NW 22:29:18 17° NW
Cosmos 2228 Rocket 3.7 22:28:10 19° SSE 22:31:14 55° E 22:35:35 10° NNE
Cosmos 1707 Rocket 3.3 22:34:33 48° SSW 22:35:41 79° W 22:39:58 10° N
NOSS 2-3 (D) 3.9 22:37:15 39° WNW 22:37:15 39° WNW 22:40:42 10° N
Cosmos 1862 Rocket 3.5 22:39:48 46° SW 22:40:49 59° W 22:45:09 10° N
NOSS 2-3 (E) 4.2 22:41:11 32° WNW 22:41:11 32° WNW 22:44:26 10° N
EPKM 4.1 22:39:44 37° SW 22:41:05 46° S 22:55:24 10° ESE
SL-24 R/B 3.9 22:37:19 10° N 22:41:17 65° WNW 22:42:44 39° SW
Cosmos 494 Rocket 3.8 22:39:16 27° SSW 22:42:07 88° WNW 22:47:15 10° NNE
Cosmos 1603 3.7 22:39:02 10° NNW 22:44:46 89° WSW 22:50:27 10° SSE
Cosmos 1900 4.2 22:41:30 10° NNW 22:46:21 87° ENE 22:51:14 10° SSE
Cosmos 1943 Rocket 2.3 22:43:29 16° S 22:47:59 77° ESE 22:53:37 10° NNE
Cosmos 2112 Rocket 3.9 22:47:38 24° SSW 22:50:46 69° WNW 22:55:58 10° N
ATLAS 2AS CENTAUR R/B 2.6 22:44:01 10° NNW 22:50:47 77° WSW 22:57:44 10° SSE
Atlas Centaur 2 4.5 22:45:08 10° NW 22:51:57 31° N 22:59:01 10° ENE
FengYun 1-2 T 4.5 22:47:54 10° NNE 22:53:25 70° ESE 22:58:53 10° S
ARIANE 5 R/B 3.1 22:59:08 16° SSW 22:59:18 16° S 23:01:29 10° SSE
IUS-1 SRM-2 4.2 23:00:17 15° WNW 23:03:06 41° N 23:14:44 10° ENE
SJ-11-01 4.1 23:01:17 10° N 23:05:53 81° WNW 23:10:29 10° SSW
OAO 3 Rocket 3.8 23:03:20 19° SSW 23:06:36 50° SE 23:11:15 10° ENE
Meteor 2-5 Rocket 3.6 23:01:19 10° SSW 23:06:47 66° W 23:12:15 10° N
Okean 1-7 4.1 23:07:10 22° W 23:07:54 23° W 23:11:09 10° NNW
Intelsat 5-1 Rocket 4.0 23:05:06 10° WNW 23:09:03 41° N 23:18:33 10° ENE
Timation 2 Rocket 4.4 23:03:14 10° S 23:09:03 60° ESE 23:14:58 10° NNE
Cosmos 2278 Rocket 2.1 23:06:29 10° SSW 23:12:09 81° WNW 23:17:49 10° NNE
CZ-2C R/B 2.8 23:08:45 10° N 23:12:55 37° WNW 23:16:31 13° SW
Cosmos 2366 rocket 4.0 23:06:37 10° N 23:12:57 89° W 23:19:19 10° S
Cosmos 1733 Rocket 3.0 23:15:06 10° NNW 23:19:19 57° W 23:23:30 10° S
Cosmos 1400 Rocket 4.1 23:21:36 10° NW 23:24:15 19° W 23:26:41 11° SW
Cosmos 2181 Rocket 4.4 23:22:43 10° SSW 23:28:21 39° W 23:34:00 10° NNW
USA 267 4.1 23:24:19 10° NNE 23:30:06 34° NW 23:35:53 10° WSW
SL-16 R/B 2.9 23:28:13 10° S 23:34:05 43° WSW 23:39:59 10° NNW
SEDSat Delta rocket 3.0 23:29:12 10° WNW 23:34:06 80° SSW 23:38:27 10° ESE
USA 59 Rocket 0.6 23:29:00 10° SSW 23:34:48 71° ESE 23:38:55 10° NNE
USA 307 4.1 23:32:36 10° WNW 23:35:20 18° WSW 23:38:06 10° SSW
EPKM 4.1 23:33:15 10° SSW 23:35:51 30° SE 23:42:19 10° E
Exosat Rocket 4.4 23:33:15 10° SW 23:38:11 31° WNW 23:42:35 10° NNW
Cosmos 1821 Rocket 4.0 23:34:01 10° N 23:40:12 81° W 23:46:18 10° S
Meteosat 1 Rocket2 3.2 23:38:59 10° WNW 23:44:44 79° SSW 23:48:48 10° ESE
Stardust Del rocket 2.8 23:42:07 10° WNW 23:46:01 71° NNE 23:48:35 10° E
NOSS 2-1 (C) 4.3 23:41:06 10° SSW 23:47:06 66° ESE 23:51:20 10° NNE
